Anchorage Merrill, AK

10:55 PM AKDT on August 18, 2017 (GMT -0800)
Merrill

Weather History for PAMR - August, 2012

Change the Weather History Date:

Sunday, August 19, 2012

  Actual Average Record
Temperature  
Mean Temperature 58 °F -  
Max Temperature 66 °F 63 °F 71 °F (2004)
Min Temperature 53 °F 49 °F 39 °F (1998)
Degree Days  
Heating Degree Days 6    
Growing Degree Days 8 (Base 50)    
Moisture  
Dew Point 48 °F    
Average Humidity 71    
Maximum Humidity 96    
Minimum Humidity 43    
Precipitation  
Precipitation 0.04 in - - ()
Sea Level Pressure  
Sea Level Pressure 29.85 in    
Wind  
Wind Speed 3 mph (NNW)    
Max Wind Speed 7 mph    
Max Gust Speed 18 mph    
Visibility 10 miles    
Events Rain    
Averages and records for this station are not official NWS values.
T = Trace of Precipitation, MM = Missing Value Source: NWS Daily Summary

Daily Weather History Graph

Daily Weather History Graph

Search for Another Location

Airport or City:

Trip Planner

Search our weather history database for the weather conditions in past years. The results will help you decide how hot, cold, wet, or windy it might be!

Date:

Astronomy

Aug. 19, 2012 Rise Set
Actual Time 6:19 AM AKDT 9:44 PM AKDT
Civil Twilight 5:27 AM AKDT 10:35 PM AKDT
Nautical Twilight 4:11 AM AKDT 11:50 PM AKDT
Astronomical Twilight 2:35 AM AKDT 1:30 AM AKDT
Moon 9:48 AM AKDT 9:26 PM AKDT
Length of Visible Light 17h 07m
Length of Day
15h 24m
Waxing Crescent, 6% of the Moon is Illuminated
Aug 19
Waxing Crescent
Aug 24
First Quarter
Aug 31
Full
Sep 8
Last Quarter
Sep 15
New

Hourly Weather History & Observations

Time (AKDT) Temp. Dew Point Humidity Pressure Visibility Wind Dir Wind Speed Gust Speed Precip Events Conditions
12:53 AM 53.1 °F 51.1 °F 93% 29.87 in 10.0 mi NNE 3.5 mph - 0.02 in Rain Light Rain
1:53 AM 53.1 °F 51.1 °F 93% 29.86 in 10.0 mi Calm Calm - 0.00 in Rain Light Rain
2:53 AM 53.1 °F 52.0 °F 96% 29.86 in 10.0 mi Calm Calm - 0.00 in   Overcast
3:53 AM 53.1 °F 52.0 °F 96% 29.85 in 10.0 mi NNW 4.6 mph - 0.00 in Rain Light Rain
5:53 AM 53.1 °F 51.1 °F 93% 29.85 in 10.0 mi Calm Calm - N/A   Overcast
6:53 AM 53.1 °F 51.1 °F 93% 29.85 in 10.0 mi Calm Calm - N/A   Overcast
7:53 AM 53.1 °F 51.1 °F 93% 29.86 in 10.0 mi Calm Calm - 0.01 in   Overcast
8:53 AM 55.0 °F 51.1 °F 86% 29.86 in 10.0 mi Calm Calm - 0.00 in   Overcast
9:53 AM 55.0 °F 51.1 °F 86% 29.87 in 10.0 mi North 4.6 mph - N/A   Overcast
10:53 AM 57.0 °F 52.0 °F 83% 29.86 in 10.0 mi Variable 3.5 mph - 0.00 in   Overcast
11:53 AM 60.1 °F 46.9 °F 62% 29.86 in 10.0 mi NNW 3.5 mph - N/A   Overcast
12:53 PM 60.1 °F 52.0 °F 75% 29.86 in 10.0 mi Calm Calm - 0.00 in Rain Light Rain
1:53 PM 63.0 °F 46.9 °F 56% 29.85 in 10.0 mi North 3.5 mph - 0.00 in   Overcast
2:53 PM 64.0 °F 45.0 °F 50% 29.85 in 10.0 mi Calm Calm - N/A   Overcast
3:53 PM 64.9 °F 43.0 °F 45% 29.84 in 10.0 mi SE 5.8 mph - N/A   Scattered Clouds
4:53 PM 64.9 °F 42.1 °F 43% 29.84 in 10.0 mi ESE 6.9 mph - N/A   Overcast
5:53 PM 63.0 °F 39.9 °F 43% 29.83 in 10.0 mi South 4.6 mph 18.4 mph N/A   Mostly Cloudy
6:53 PM 62.1 °F 42.1 °F 48% 29.83 in 10.0 mi Calm Calm - 0.00 in   Overcast
7:53 PM 62.1 °F 41.0 °F 46% 29.82 in 10.0 mi SSW 5.8 mph - N/A   Mostly Cloudy
8:53 PM 61.0 °F 41.0 °F 48% 29.82 in 10.0 mi SSW 6.9 mph - N/A   Mostly Cloudy
9:53 PM 61.0 °F 42.1 °F 50% 29.82 in 10.0 mi NNW 3.5 mph - N/A   Overcast
10:53 PM 57.0 °F 48.9 °F 74% 29.83 in 10.0 mi Variable 3.5 mph - 0.00 in Rain Light Rain
11:53 PM 57.9 °F 48.0 °F 70% 29.83 in 10.0 mi NNW 6.9 mph - 0.01 in   Overcast